Location: ????
(32.1228°N, 34.8377°E)
Time: 01:19:03
(UTC+00:00)

Cosmos 2360 Rocket - Pass Details

Date: 21 September 2020
Orbit: 835 x 844 km, 71.0° (Epoch: 21 October)

Event Time Altitude Azimuth Distance (km) Brightness Sun altitude
Exits shadow 01:48:09 - 186° (S) 2,729 4.6 -21.8°
Reaches altitude 10° 01:48:54 10° 184° (S) 2,452 4.4 -21.6°
Maximum altitude 01:54:24 58° 107° (ESE) 976 2.7 -20.5°
Drops below altitude 10° 01:59:57 10° 29° (NNE) 2,465 5.2 -19.4°
Sets 02:02:25 0° 26° (NNE) 3,402 5.9 -18.9°
